Wind_Speed
9 7 9 11 9 10 10 9 12 13 15 18 19 18 19 19 16 15 15 16 17 16 15 14 13 12 12 12 12 12 13 14 15 15 15 15 14 13 12 11 12 12 12 11 10 9 9 10 9 9 10 11 11 11 13 14 16 17 19 20 20 18 14 11 8 7 7 9 10 10 11 10 8 7 6 6 5 4 5 7 7 8 8 9 11
9 8 9 12 10 13 13 14 14 11 14 16 17 15 15 16 16 15 15 15 16 15 14 15 15 14 12 12 13 12 12 12 13 13 13 12 12 12 11 11 12 12 11 10 10 10 10 10 10 10 11 11 11 13 15 15 17 18 19 20 20 18 14 10 7 6 6 8 9 9 10 8 7 7 6 6 5 5 6 7 9 10 12 13 13
6 6 8 10 9 12 15 18 18 14 14 13 15 16 12 12 14 14 15 16 16 17 18 17 16 14 13 13 14 13 12 10 9 9 9 9 10 10 10 11 11 10 10 10 11 11 11 9 9 10 11 12 12 13 15 16 17 18 19 20 19 17 13 8 6 6 7 9 9 9 9 9 6 6 6 5 4 6 8 10 12 13 14 15 15
5 4 6 7 7 9 13 17 21 20 19 18 18 18 13 13 13 14 16 18 20 22 21 18 15 14 14 14 13 11 10 8 6 5 6 6 8 9 11 12 12 12 12 12 12 12 11 9 9 10 11 11 10 12 14 15 16 17 18 19 18 15 10 6 6 6 7 10 10 9 10 10 8 6 6 6 6 8 10 13 15 16 16 17 16
7 6 5 4 3 5 9 13 18 21 23 23 22 19 15 14 14 15 17 18 22 23 20 15 12 12 13 11 8 7 6 4 3 5 6 7 8 9 11 12 13 14 14 14 14 13 11 9 10 10 10 10 10 12 13 14 14 14 17 18 17 14 9 7 7 7 8 10 12 11 10 9 8 8 8 8 9 10 12 15 17 17 17 17 16
11 11 12 12 11 9 6 3 6 12 17 19 19 17 15 13 14 15 17 19 22 22 18 14 12 9 7 6 3 4 5 2 5 8 10 11 11 13 13 13 14 15 16 16 16 14 12 10 11 11 10 10 11 12 13 13 12 13 15 15 15 12 9 8 9 9 10 11 12 11 10 9 8 9 10 9 10 12 14 16 17 17 16 16 16
14 15 16 17 17 17 17 16 13 8 5 8 11 12 11 11 12 13 16 19 20 20 18 18 14 10 7 4 2 3 6 7 9 10 12 14 15 15 14 13 14 15 16 16 17 15 14 12 12 12 11 11 12 13 14 14 13 15 15 14 14 11 10 11 11 11 10 11 11 11 10 10 10 11 12 13 13 15 16 16 16 15 15 15 16
15 15 16 16 16 17 18 20 20 18 15 11 7 7 8 9 10 12 14 16 17 17 16 14 13 12 8 4 3 5 9 10 10 9 11 15 15 14 12 11 12 14 15 16 16 15 14 12 11 11 11 13 14 15 16 16 15 15 15 14 12 11 11 12 11 10 9 10 10 11 11 11 11 12 13 15 17 17 17 15 14 14 15 16 17
14 14 14 14 15 16 17 18 18 18 18 16 14 11 9 7 8 9 10 11 11 11 9 6 6 7 4 2 3 7 10 8 6 6 10 15 14 12 11 11 13 15 16 16 14 13 13 13 13 11 12 14 15 16 17 17 16 15 13 12 11 10 10 11 10 9 10 9 8 9 10 11 11 12 14 16 17 16 15 14 13 14 16 17 17
13 12 12 13 13 14 15 16 16 16 16 15 13 12 10 8 8 8 7 5 5 4 3 1 1 1 1 1 3 8 8 1 1 4 11 17 16 13 12 13 17 17 16 15 13 14 14 14 13 11 13 15 15 16 16 16 15 13 12 12 11 9 8 9 10 9 10 9 7 8 11 12 11 12 14 15 15 14 13 13 13 15 16 16 15
11 11 11 12 13 14 14 14 14 14 15 14 12 10 7 5 6 8 7 5 3 2 1 1 1 3 2 3 5 9 6 3 2 3 11 17 16 13 14 17 19 17 15 14 14 14 13 12 11 10 13 15 16 16 15 14 13 11 11 11 10 8 8 10 10 9 8 7 7 9 12 13 12 13 14 13 12 11 12 12 13 14 14 12 12
12 12 11 11 12 12 12 12 12 12 12 12 11 9 6 3 4 7 6 4 3 2 3 3 4 6 5 6 7 8 7 5 4 6 14 18 16 16 18 20 19 16 15 14 12 9 7 8 10 12 16 19 18 17 14 13 11 9 9 10 9 8 9 9 8 8 6 6 8 10 11 12 12 12 11 9 9 10 11 12 12 11 11 10 11
11 11 11 11 11 11 11 10 10 9 9 9 9 9 6 3 3 5 5 3 2 2 2 1 4 6 6 8 8 8 10 8 7 11 19 21 20 22 22 21 18 16 15 13 11 9 9 9 13 17 21 23 20 17 13 10 9 8 8 8 8 8 8 8 7 7 6 8 9 10 10 10 10 9 8 9 10 10 10 9 9 9 10 10 11
11 11 11 10 10 10 9 9 9 8 8 8 8 9 7 1 3 4 5 4 3 3 2 2 3 4 6 6 4 5 7 9 12 17 22 24 24 24 22 19 18 16 15 14 13 15 14 14 18 21 22 21 17 13 11 9 8 8 8 7 7 7 8 9 9 9 9 11 11 10 9 9 9 9 9 9 8 7 7 7 8 9 10 11 11
10 10 10 9 9 8 8 7 7 8 8 8 8 9 8 2 3 2 3 4 4 4 3 3 4 5 6 3 1 4 9 13 17 21 24 25 25 23 20 19 19 18 17 16 16 17 17 17 19 19 18 15 12 11 9 8 8 8 7 7 7 6 7 8 9 9 10 11 11 11 10 9 9 8 7 6 5 5 6 7 8 9 10 10 11
9 9 9 9 9 9 8 7 7 9 9 8 9 10 9 4 3 2 2 2 4 6 5 5 8 10 8 6 5 9 16 19 19 22 25 25 23 20 19 19 19 18 17 17 16 17 17 17 17 16 15 12 11 9 8 8 7 8 8 8 8 7 6 7 7 8 10 10 10 9 8 7 6 5 4 4 4 5 7 8 9 10 10 10 11
9 10 11 11 11 11 9 9 9 10 9 9 10 11 9 4 1 2 3 2 2 4 6 9 10 10 8 8 11 15 20 22 21 22 22 21 18 17 18 18 17 17 17 16 16 16 16 16 15 14 12 10 9 8 8 8 8 8 9 9 8 7 6 6 7 8 9 8 6 5 4 4 3 3 3 4 5 7 8 9 10 10 10 11 12
11 12 14 14 14 13 13 12 12 12 10 10 11 13 11 4 0 1 3 3 1 1 4 7 7 7 7 9 13 17 19 20 19 17 16 16 15 16 16 16 16 16 16 16 15 14 13 12 11 10 8 7 7 7 8 7 6 6 6 6 4 4 4 6 7 7 6 4 3 2 2 2 3 3 5 6 8 9 10 10 10 10 11 12 12
14 15 16 16 16 15 15 15 15 13 12 12 12 15 13 6 1 0 2 4 2 1 3 4 4 6 7 9 12 13 14 14 13 13 12 13 13 14 14 15 14 13 12 11 10 8 7 6 5 4 4 4 5 5 5 4 4 3 2 1 1 3 5 6 4 3 3 3 3 3 3 4 5 6 8 9 10 10 10 10 11 11 11 12 12
18 17 17 17 16 15 15 15 15 14 13 13 14 15 14 9 3 1 1 3 2 2 3 3 2 4 6 6 7 8 9 9 10 10 10 10 11 11 11 10 8 6 5 3 2 1 1 2 3 3 4 5 5 5 5 5 4 3 2 1 2 4 4 3 3 4 4 4 5 5 6 7 8 9 10 10 10 10 10 11 11 11 12 12 12
20 19 18 17 16 15 15 15 16 15 13 14 14 14 13 11 7 2 3 2 1 1 2 1 1 2 3 4 5 5 6 6 6 6 7 7 7 7 6 5 5 6 7 8 8 8 8 9 8 8 7 7 7 7 7 6 4 3 2 2 2 2 4 5 5 6 6 7 8 8 9 10 10 10 10 10 10 10 10 10 10 11 11 11 12
21 20 19 18 16 15 15 15 15 14 13 13 13 13 12 10 8 5 2 1 1 1 2 1 1 2 4 4 3 3 4 5 5 5 6 7 8 8 8 9 10 11 12 12 12 13 13 12 11 10 9 8 8 7 7 6 5 5 5 5 6 7 8 8 8 9 10 10 10 10 10 10 9 9 10 10 10 10 10 10 10 11 10 10 11
22 22 21 20 18 16 15 16 15 14 13 13 12 11 10 9 7 5 3 0 1 0 0 0 1 1 1 1 3 6 7 8 8 8 9 10 11 11 11 11 12 12 12 12 13 14 14 13 12 10 10 10 10 9 9 9 9 9 10 11 11 11 11 12 12 12 11 10 9 9 9 8 8 9 9 10 10 11 11 11 11 10 10 10 10
23 23 23 22 20 18 17 16 15 14 14 13 12 11 9 8 7 6 4 2 2 3 3 3 3 4 5 7 7 8 9 10 11 11 12 13 14 14 13 13 12 12 12 13 14 14 14 14 13 13 13 13 13 13 13 12 13 13 14 14 13 14 14 14 13 11 9 8 8 7 7 8 9 10 11 12 12 12 11 11 10 10 10 9 10
24 24 24 24 23 21 19 17 17 16 15 14 13 12 11 10 9 8 6 6 6 6 6 6 6 7 10 11 11 10 11 12 13 13 15 16 16 15 15 15 14 14 15 15 16 17 18 18 17 17 17 17 16 16 15 15 15 15 15 14 14 15 15 14 12 10 9 8 8 8 9 10 11 12 12 12 12 12 11 11 10 10 9 9 10
25 24 24 25 25 23 21 20 18 17 16 16 15 14 12 11 11 10 10 9 9 9 9 9 10 11 13 13 14 14 14 15 15 16 17 17 17 17 17 17 17 18 20 20 20 21 21 21 21 20 20 19 19 18 17 16 16 15 15 15 16 16 14 12 11 10 10 11 11 12 12 12 13 12 12 12 12 12 12 12 11 9 9 9 10
25 25 25 25 25 24 23 22 21 20 18 17 16 15 14 13 13 13 12 12 11 11 11 12 13 14 15 15 16 17 17 17 18 18 18 18 18 18 18 19 20 21 22 22 22 22 23 23 23 23 22 21 20 20 19 18 17 17 17 17 16 14 12 11 11 11 12 13 13 12 12 12 12 11 12 12 12 13 13 12 10 9 8 10 10
26 25 25 26 26 26 24 23 23 22 21 20 19 17 16 15 15 14 14 14 14 13 13 13 14 15 16 17 17 19 19 20 20 19 19 19 19 18 19 19 20 21 22 22 22 23 24 25 24 24 23 22 22 22 21 20 19 19 18 17 14 12 10 10 11 12 13 12 12 11 12 12 12 12 12 12 12 13 13 11 9 8 9 11 10
26 25 25 26 27 26 25 25 24 24 23 22 21 20 19 17 16 16 15 16 15 15 14 14 15 16 17 18 19 20 21 21 21 21 20 20 20 19 20 20 20 21 21 22 23 24 25 25 25 25 25 25 25 24 22 19 18 18 17 15 13 12 11 11 11 12 12 12 12 12 12 12 12 12 12 12 12 12 12 10 9 8 10 10 9
25 25 25 26 27 26 26 25 25 25 25 25 24 23 21 19 18 17 17 16 16 16 16 16 16 17 18 19 20 21 21 22 22 23 22 21 21 21 21 21 21 21 22 23 23 24 24 24 25 25 25 25 24 23 21 18 16 16 15 14 13 13 14 13 13 12 12 12 13 13 13 13 12 11 10 11 11 12 11 10 8 9 10 9 8
25 25 25 26 26 26 26 26 26 25 26 26 26 24 23 21 20 19 18 18 18 17 17 17 17 17 19 20 21 22 22 22 23 24 23 23 22 22 22 22 22 22 22 23 23 23 23 23 23 23 23 22 21 20 19 17 17 16 16 15 15 15 15 15 15 15 14 14 14 14 14 13 11 10 9 10 11 12 12 10 9 9 9 8 8
24 25 25 26 27 27 27 27 26 26 27 27 27 26 25 23 22 21 20 20 19 18 18 18 17 18 19 20 22 22 22 22 23 23 23 23 22 22 23 23 23 22 22 22 22 22 21 21 22 21 21 20 19 17 16 16 17 17 17 17 16 15 15 16 16 16 16 15 15 13 12 11 11 10 8 8 10 12 11 9 8 9 9 8 9
24 25 25 26 27 28 28 28 27 27 27 28 28 27 27 26 25 23 22 21 21 19 19 18 18 18 19 20 22 23 23 23 22 23 23 23 23 23 23 23 23 23 22 22 21 20 20 20 21 20 19 19 19 18 17 16 17 17 18 18 18 17 16 16 17 16 15 15 13 11 10 11 11 10 8 8 10 10 10 8 8 9 9 9 10
24 25 26 27 27 28 28 28 28 27 28 29 29 28 28 28 27 26 24 22 22 21 20 19 19 18 19 20 21 22 22 22 22 23 24 24 24 24 24 23 22 22 22 22 21 20 20 20 20 20 20 20 20 20 20 18 18 18 19 19 18 17 16 16 17 17 15 14 15 12 10 11 12 11 9 9 9 9 9 8 8 9 10 11 13
24 25 27 28 28 28 28 28 28 28 28 29 30 29 29 29 29 28 26 24 23 22 21 20 20 19 20 20 20 21 21 22 22 23 24 24 24 24 23 22 22 22 22 22 21 20 20 21 21 21 21 21 21 22 22 21 20 19 19 19 19 17 16 17 17 17 15 15 17 15 12 12 12 12 10 10 9 9 9 9 10 11 13 14 17
24 25 27 28 28 28 28 28 28 28 28 30 30 30 30 30 30 29 28 26 24 23 21 21 20 20 20 20 20 20 20 21 21 22 23 23 23 22 22 21 21 20 20 20 20 20 20 20 21 21 21 21 21 21 22 21 20 20 20 19 19 18 17 17 17 16 15 16 18 17 15 14 14 13 12 12 11 11 11 12 13 15 17 18 20
25 25 26 27 29 29 29 29 29 29 29 30 31 31 31 31 31 30 29 28 26 25 23 22 21 20 19 19 20 20 20 20 20 21 22 22 22 21 21 20 19 18 18 18 18 18 19 20 20 20 21 21 21 21 22 21 20 20 20 20 20 19 18 17 16 16 15 16 17 16 16 16 15 15 15 14 14 14 14 15 17 19 21 22 23
24 25 25 26 28 29 30 30 30 30 30 31 31 32 32 32 32 31 31 30 28 27 25 24 22 21 20 19 19 20 19 20 20 20 20 21 21 21 21 20 20 19 19 20 20 19 20 20 21 21 22 22 21 21 21 21 21 20 20 21 21 20 19 18 17 16 15 15 16 16 16 17 17 17 17 17 17 17 18 20 21 23 24 25 25
24 25 25 26 27 29 30 30 30 30 31 31 32 32 33 33 33 32 32 32 30 29 27 26 25 24 22 21 20 20 20 20 20 20 20 20 20 21 21 21 21 22 22 22 21 21 21 21 22 22 23 22 22 22 22 22 22 22 22 22 22 22 21 20 19 17 16 17 17 18 19 20 20 20 20 20 21 22 23 24 25 26 27 28 28
24 24 25 26 27 28 29 30 31 31 31 32 32 33 33 34 34 33 33 33 32 31 29 29 28 26 25 23 22 21 20 20 20 20 20 20 19 20 21 21 21 21 21 21 21 20 21 21 22 23 23 22 22 22 23 23 23 23 24 25 25 25 25 23 22 21 20 20 21 21 22 23 23 24 24 24 25 26 27 28 28 29 30 30 30
24 24 25 26 27 28 29 30 30 31 32 32 33 33 34 34 34 34 34 33 33 32 31 31 31 29 27 26 24 23 22 21 21 21 21 21 20 20 20 20 21 22 22 22 22 22 22 23 23 24 24 23 23 24 24 25 26 26 27 28 29 29 29 27 26 25 24 24 24 25 25 26 27 28 28 28 29 29 30 30 31 31 32 32 32
23 23 24 25 26 27 28 29 30 31 31 32 33 33 33 34 34 35 35 34 34 33 32 32 33 32 30 29 27 26 24 23 23 22 22 22 22 21 21 21 22 24 25 25 26 26 26 25 25 24 24 24 24 25 26 27 28 29 30 31 31 32 32 31 30 29 28 28 28 28 29 29 30 31 31 32 32 32 33 33 33 33 34 34 34
21 22 22 24 25 26 27 27 29 30 31 31 32 32 33 33 34 34 35 35 35 34 34 34 34 33 32 31 30 29 27 26 25 24 24 24 23 24 23 23 24 26 27 28 27 27 27 26 25 25 25 25 26 27 28 29 30 31 32 33 33 34 34 34 34 33 32 32 31 32 32 33 33 34 35 35 35 35 35 35 36 36 36 36 36
20 21 21 22 24 24 25 26 27 28 29 30 31 31 32 32 33 34 35 35 35 35 35 35 35 34 33 32 32 31 30 29 28 27 26 26 25 26 27 27 27 28 28 28 27 26 26 26 25 26 26 27 28 29 30 30 31 33 34 34 35 35 36 36 37 37 36 36 36 36 36 37 37 38 38 38 38 38 39 39 39 39 38 38 38
18 19 20 21 22 22 23 24 25 26 27 28 29 30 31 31 32 34 35 35 35 36 36 36 36 35 34 33 32 32 31 30 30 29 29 28 28 28 29 29 29 29 28 28 27 27 27 26 27 27 28 29 30 31 31 32 32 34 35 36 37 37 38 39 40 40 40 40 40 41 41 42 42 42 43 43 44 44 44 44 43 43 43 43 43
16 18 19 19 20 20 21 22 23 24 25 26 27 28 29 30 31 32 34 35 36 37 37 37 37 36 36 34 33 32 31 30 30 30 30 30 30 30 30 29 28 28 28 29 29 28 27 27 28 28 29 30 31 32 33 33 34 36 37 38 38 39 40 41 43 43 44 44 45 45 46 46 47 47 48 48 48 48 48 48 48 48 48 47 47
15 15 16 17 18 19 20 20 21 23 23 24 25 26 27 28 29 30 31 33 35 36 37 38 38 37 37 36 35 33 32 31 30 30 31 31 31 30 30 29 28 28 28 29 29 28 27 27 28 29 30 32 33 34 34 35 36 37 38 39 40 41 42 43 45 46 47 47 48 49 49 49 50 50 51 51 51 51 51 51 51 50 50 49 49
13 14 15 15 17 19 19 19 20 21 22 23 24 24 25 26 27 28 29 31 33 34 36 37 38 38 38 37 36 35 34 32 31 29 29 29 29 28 28 28 28 28 29 29 28 27 26 27 28 30 32 33 34 35 36 36 37 38 39 40 41 42 43 44 45 46 47 48 49 50 50 50 50 51 51 52 52 52 51 51 51 51 50 49 49
11 13 14 15 16 17 18 18 19 20 21 22 23 23 24 25 25 26 27 29 30 31 33 35 36 37 37 38 37 37 36 34 32 30 28 27 26 27 27 27 27 27 27 27 27 26 26 27 29 31 32 34 34 35 36 36 37 38 39 39 40 41 42 43 44 45 46 47 48 48 49 49 49 50 50 50 51 51 51 51 50 50 50 49 49
9 12 13 14 15 16 17 17 18 19 20 21 22 22 23 24 24 25 26 27 28 29 30 32 34 35 36 37 37 37 37 36 34 32 30 29 28 28 28 27 26 26 26 26 25 25 26 27 29 31 32 33 34 34 34 35 35 36 36 37 39 40 41 41 42 43 44 45 46 46 47 47 47 48 49 49 49 49 49 49 49 49 48 48 47
8 10 12 14 14 14 16 16 17 18 19 20 21 22 22 23 23 23 24 25 26 27 28 29 31 33 34 35 36 36 37 36 35 33 32 30 29 29 28 27 27 26 25 25 24 24 25 27 29 30 31 32 32 32 33 33 33 33 34 35 37 38 39 40 40 41 42 43 43 44 44 45 46 46 47 47 47 47 47 47 47 46 46 46 45
Wind_Direction
182 192 176 190 205 198 193 196 210 213 212 207 208 213 209 211 223 224 230 240 237 237 244 254 273 283 282 282 277 278 281 286 291 294 295 290 284 283 282 270 264 266 268 269 278 287 294 299 300 298 292 291 286 277 279 287 300 310 314 318 319 317 311 304 289 285 307 312 317 325 324 338 1 7 10 18 356 345 351 351 342 331 321 313 308
205 223 191 187 188 193 201 207 212 211 211 207 208 215 217 226 239 236 227 232 236 241 250 259 281 296 290 284 283 283 284 289 293 295 295 289 282 278 269 263 266 271 274 277 284 289 294 297 299 301 297 292 283 281 282 286 300 309 312 316 318 316 311 299 283 278 290 293 303 313 319 333 352 358 359 2 347 342 348 340 331 323 316 310 306
187 211 197 194 191 195 201 210 221 222 216 213 216 223 235 247 251 247 232 228 237 246 253 264 282 291 284 284 287 289 290 295 297 293 290 287 282 274 264 265 271 274 278 282 285 286 289 290 289 297 299 294 288 287 283 286 305 313 310 312 315 316 310 287 268 278 285 288 298 304 310 319 334 352 347 351 340 329 334 330 323 318 314 310 306
147 171 182 196 211 220 220 218 224 228 229 228 228 236 256 268 261 251 233 232 242 247 251 261 274 280 280 285 289 291 294 296 290 284 286 285 282 276 270 271 272 273 278 281 281 281 286 286 284 294 297 294 292 289 283 287 303 307 303 309 313 313 306 272 264 279 283 287 297 300 304 308 318 329 320 327 324 322 326 323 319 316 313 309 307
114 119 124 141 181 225 236 232 229 231 233 232 234 243 259 263 257 246 234 236 242 247 254 262 271 274 273 277 285 290 294 295 284 283 281 279 275 274 274 273 273 276 281 282 279 276 282 283 286 293 294 292 289 283 279 283 290 292 295 305 311 309 297 275 273 282 282 285 292 295 298 303 310 309 302 308 309 312 317 316 317 315 313 309 308
101 98 95 93 89 87 94 140 210 225 228 230 235 242 248 242 238 236 232 234 242 250 258 266 270 265 264 268 283 313 315 296 283 285 280 278 276 274 272 272 278 284 288 288 284 277 277 279 284 290 288 287 283 278 276 276 276 280 285 295 302 298 285 279 281 289 292 292 294 293 293 292 293 295 293 297 298 303 310 314 317 315 313 310 310
97 94 90 87 83 80 78 78 82 99 157 202 217 222 221 216 220 224 226 233 243 252 258 264 260 246 259 279 273 299 301 289 286 286 284 286 284 281 279 282 287 291 291 291 290 282 279 279 280 281 279 280 281 279 276 276 277 277 274 278 284 277 268 270 281 291 299 302 298 291 284 281 278 281 287 290 294 303 311 317 319 316 314 312 312
92 88 85 80 77 75 75 75 76 79 85 101 127 157 177 190 203 209 217 229 241 249 249 252 247 240 249 268 277 283 287 293 297 292 288 288 286 288 290 291 293 296 295 291 292 287 280 280 278 277 274 278 284 280 275 278 279 275 270 270 270 264 260 264 274 285 298 305 303 296 288 283 276 277 283 287 293 302 311 316 316 314 313 311 308
88 81 77 71 69 70 71 72 74 76 79 83 90 99 116 142 171 189 204 218 231 233 225 220 228 231 215 241 301 289 281 292 304 293 288 289 290 293 294 295 300 302 297 293 293 290 284 280 275 272 272 277 281 276 272 273 274 273 270 269 265 260 263 265 266 278 294 295 302 310 303 297 287 282 283 286 293 301 309 311 311 311 310 307 304
82 77 72 68 67 69 70 71 72 74 76 78 82 89 97 111 131 143 154 171 194 190 174 139 53 222 206 268 269 257 258 268 335 291 291 296 300 301 299 303 305 304 300 296 289 283 285 285 279 273 273 276 274 270 272 275 276 276 269 267 262 258 268 271 266 278 294 291 296 307 299 297 291 287 290 291 295 301 305 306 308 308 305 304 302
65 63 61 60 61 63 64 67 71 76 77 75 76 84 99 115 121 126 129 140 154 123 175 243 296 256 234 256 243 240 241 150 147 276 287 289 291 290 293 301 304 303 303 298 289 286 287 278 270 266 269 275 276 279 285 287 283 273 262 264 261 260 274 278 276 285 298 296 290 290 288 288 287 291 298 300 300 301 303 304 305 303 302 304 304
48 44 44 46 50 51 54 59 65 74 78 75 71 77 100 132 127 126 127 145 156 157 239 223 235 238 213 227 229 237 254 238 213 260 274 272 274 282 290 298 301 299 296 293 292 286 274 261 259 266 274 280 286 290 292 289 280 263 259 265 267 267 275 278 283 293 301 286 272 273 280 287 292 299 306 308 305 303 303 302 302 302 304 307 308
42 36 34 36 41 43 45 46 48 59 70 71 69 75 90 121 145 133 128 141 125 138 269 263 231 243 228 222 220 238 258 259 253 258 266 266 276 291 295 296 297 294 291 288 278 249 238 252 268 274 277 282 286 289 288 282 271 256 256 263 271 272 270 271 273 280 276 270 274 282 289 294 299 304 306 304 301 301 300 301 303 307 310 310 312
45 41 39 39 41 40 38 35 31 44 62 69 73 85 98 160 210 155 152 156 105 99 251 260 238 255 246 227 220 246 255 266 269 264 265 266 278 290 291 291 291 290 288 282 269 256 255 261 271 273 274 278 280 282 278 271 256 244 248 255 271 275 267 266 267 270 266 270 289 304 305 301 301 298 294 292 290 291 297 305 309 310 309 311 313
51 48 46 44 45 45 42 36 32 51 68 74 81 93 106 182 236 149 138 152 148 160 189 241 239 243 247 248 268 266 267 269 267 265 264 266 276 285 285 288 289 289 287 280 272 269 269 267 271 273 273 274 273 272 267 262 244 235 247 256 270 272 261 264 271 276 274 279 292 301 299 299 299 292 283 278 279 292 304 308 307 306 308 312 316
54 48 43 44 49 52 51 48 48 63 74 79 86 93 110 160 220 117 115 167 175 164 172 219 229 238 250 270 272 257 261 262 261 263 265 268 278 284 287 291 290 289 286 282 277 273 271 270 271 270 270 269 268 264 253 247 235 232 245 252 258 254 246 259 275 282 282 287 293 294 290 292 292 283 276 281 295 302 303 304 304 307 313 319 322
51 44 45 52 56 59 58 59 64 71 80 84 85 89 100 129 211 109 114 158 186 165 186 211 219 233 239 240 241 239 250 259 264 267 268 274 286 292 294 294 292 290 286 283 280 275 273 270 269 267 266 263 257 248 241 239 232 234 243 249 253 248 247 265 281 285 289 296 298 291 280 285 286 286 297 302 304 303 306 310 313 318 323 326 325
51 50 55 60 63 65 64 67 72 77 85 90 88 89 91 89 343 92 112 137 221 230 211 222 226 238 236 230 236 244 256 265 269 272 278 288 296 297 297 295 293 291 288 286 281 277 274 269 266 262 255 245 236 231 235 234 228 232 241 253 258 258 273 286 291 294 300 313 317 302 300 311 310 312 313 311 314 317 321 323 325 327 328 329 328
54 55 58 62 65 69 71 73 78 81 84 87 88 92 96 97 86 264 139 141 169 243 250 263 255 252 249 243 247 256 266 274 279 284 290 295 298 299 299 298 297 295 293 290 283 278 273 267 261 250 228 209 207 208 208 199 199 202 208 229 275 301 303 303 308 324 345 7 13 4 347 336 329 329 328 329 332 332 331 329 330 330 330 332 333
54 55 58 63 68 71 75 80 85 85 81 82 87 94 102 106 97 357 48 110 139 201 246 264 253 257 253 250 259 268 279 287 289 293 298 302 306 308 308 307 310 318 325 338 350 16 64 83 105 121 131 139 152 158 152 144 137 124 109 4 315 307 319 347 21 29 24 18 8 359 349 346 345 345 342 340 337 332 329 329 331 332 333 335 339
54 55 58 64 69 72 77 82 88 88 83 82 87 93 102 109 113 82 24 34 94 197 218 213 243 263 265 271 284 295 305 309 307 310 317 325 336 342 349 10 40 58 66 69 69 72 77 84 89 97 110 124 133 135 129 121 108 86 50 18 7 27 41 41 36 27 19 14 8 2 359 357 355 350 343 337 331 329 330 333 335 336 339 342 345
55 55 57 62 67 71 75 80 86 87 84 84 87 91 96 106 116 114 95 347 320 206 198 213 252 255 265 278 307 354 6 7 5 6 16 26 37 45 54 66 73 75 76 76 76 76 79 83 88 95 108 117 119 114 101 89 78 76 76 74 67 57 47 37 32 26 21 16 12 9 4 359 350 343 337 333 332 335 338 340 341 341 342 345 349
54 54 56 59 63 66 70 74 80 82 82 84 87 88 89 96 108 117 128 228 320 125 168 293 278 277 289 356 50 47 44 46 47 48 51 54 60 64 67 70 72 73 74 77 79 80 81 83 85 90 92 92 90 86 82 82 82 82 76 69 60 52 47 42 37 30 24 20 15 9 2 353 347 345 343 344 345 346 346 344 342 341 343 348 351
53 54 56 57 59 61 64 68 72 74 76 80 83 84 85 89 94 99 105 71 43 48 43 52 48 52 62 66 64 59 58 60 59 59 62 65 67 67 68 67 67 70 73 78 83 86 87 87 87 87 86 85 84 84 83 82 80 76 70 65 61 57 53 47 41 35 29 25 20 13 6 1 0 360 356 354 352 349 346 344 342 343 346 349 348
52 54 55 55 56 58 61 64 66 68 69 73 77 79 79 80 81 81 80 74 66 65 64 64 60 63 67 66 68 69 69 68 66 65 68 69 68 69 71 71 74 79 82 86 89 91 92 91 91 89 88 86 84 82 79 76 74 72 70 68 65 59 53 47 44 41 39 37 32 27 21 17 14 9 3 359 355 352 350 348 349 349 349 349 344
52 54 54 53 55 58 60 61 62 64 64 66 69 71 71 72 75 74 74 76 77 76 75 72 70 72 72 72 75 77 74 70 66 67 69 68 68 70 75 79 83 86 88 90 92 93 93 91 88 86 84 82 80 78 75 74 71 70 69 66 61 55 49 45 43 43 43 40 35 30 25 22 19 13 8 6 5 3 0 359 357 356 355 350 343
53 54 54 53 56 59 60 61 61 61 61 62 64 66 67 70 73 72 71 74 77 78 76 73 74 76 77 77 78 78 74 69 67 68 70 69 69 73 78 82 85 87 89 92 93 92 91 88 85 83 81 79 77 75 71 69 68 67 65 61 56 51 46 41 39 40 39 36 31 27 23 22 18 11 7 7 9 8 5 5 5 6 3 353 347
54 55 55 55 57 59 60 61 61 61 61 62 62 63 64 67 70 69 68 71 74 76 76 73 74 77 78 77 78 78 74 70 68 69 70 70 70 75 79 82 85 89 91 93 93 91 89 87 85 83 81 79 76 71 66 64 64 64 62 59 56 52 47 39 36 35 32 30 26 23 21 19 15 8 5 4 6 6 5 6 11 14 6 358 355
55 56 56 56 57 59 61 61 61 61 61 62 62 62 62 64 66 67 67 69 73 74 75 75 74 76 77 78 79 79 75 71 69 70 71 72 73 77 81 84 87 90 92 93 93 91 89 87 85 82 79 76 72 68 63 60 61 61 60 59 56 52 45 37 31 27 23 19 17 19 20 17 15 12 9 6 4 4 5 7 13 15 6 4 5
55 56 57 57 58 59 60 61 61 60 61 62 62 62 61 62 64 65 67 71 74 75 77 76 74 76 78 79 80 78 75 73 72 72 72 74 77 79 81 84 86 88 90 91 91 90 88 86 84 81 78 74 70 66 61 58 57 58 58 56 53 48 44 37 30 24 17 11 10 15 20 20 17 13 10 8 5 2 4 9 14 11 6 9 14
55 56 58 59 59 60 61 60 60 59 60 61 62 62 62 62 63 65 68 72 76 78 79 78 76 78 80 81 81 79 75 73 75 76 76 77 80 82 83 84 85 86 88 90 91 89 87 84 80 77 75 73 70 66 60 54 53 53 52 48 47 45 43 38 32 28 22 16 14 16 20 17 10 7 6 6 4 2 5 11 12 9 10 17 23
55 58 59 60 60 60 61 60 60 59 59 61 61 62 62 62 62 65 69 73 76 78 79 79 78 80 82 82 81 79 75 73 76 79 80 81 82 84 85 87 87 87 88 90 90 88 85 81 77 73 72 71 68 65 59 51 48 47 45 43 41 41 40 36 32 30 27 24 19 19 20 8 357 359 2 1 0 2 7 12 12 15 21 28 34
56 59 59 60 61 61 61 60 59 59 59 60 61 61 61 61 62 64 68 71 73 75 77 78 79 81 82 81 82 80 76 74 77 81 83 83 85 86 87 87 87 87 87 88 87 85 82 78 75 71 68 66 64 61 56 49 43 40 40 39 37 37 38 36 32 30 30 26 18 14 8 356 350 355 360 359 358 3 12 17 21 30 37 41 49
57 58 60 61 61 62 61 60 60 60 59 59 60 60 61 61 62 64 66 69 71 72 74 76 78 81 82 82 84 84 80 78 81 84 86 85 86 87 87 86 85 85 85 85 84 82 79 75 72 68 64 62 62 60 55 49 43 38 37 37 36 37 40 39 36 34 32 24 17 10 360 356 357 359 1 3 6 15 26 31 38 47 54 57 68
58 59 60 61 62 62 61 61 60 60 60 59 59 60 60 62 62 63 65 67 70 72 74 76 78 81 84 86 87 87 86 83 84 87 88 87 87 86 86 85 83 82 81 80 79 78 76 72 68 64 61 60 60 58 54 50 45 41 39 39 41 44 46 44 40 38 35 26 20 16 12 12 13 14 16 21 28 39 47 50 55 61 66 72 81
62 60 60 61 62 63 62 61 60 60 60 59 58 59 60 62 63 63 65 67 69 71 74 76 78 82 86 88 89 88 87 87 86 87 88 88 88 87 86 85 84 81 78 76 75 74 73 69 65 61 58 56 54 52 51 49 48 44 41 40 43 47 50 48 43 41 37 29 22 21 23 26 28 30 35 43 50 57 63 65 68 73 77 81 89
64 63 61 61 61 62 62 61 61 60 60 59 59 59 60 62 63 64 65 67 68 70 72 75 78 82 86 88 87 85 84 84 85 85 85 86 86 86 85 83 81 78 75 74 73 71 69 66 63 60 56 53 51 51 51 49 47 43 39 39 43 47 51 52 50 46 40 32 27 27 32 38 42 46 51 58 64 69 72 74 77 81 83 86 91
65 64 61 60 60 61 61 62 61 61 61 61 60 61 61 62 63 64 65 67 68 69 71 73 77 80 83 84 83 82 81 81 84 85 85 84 83 83 82 80 78 76 75 74 72 68 65 63 62 60 56 54 53 52 52 49 46 43 40 41 43 46 49 51 51 49 44 39 37 38 44 51 55 59 63 68 73 77 79 81 83 85 86 88 90
65 65 63 61 61 61 61 62 62 62 63 63 62 62 62 63 63 64 65 65 67 69 70 72 74 77 79 80 81 80 81 81 82 84 85 83 80 80 80 79 79 77 76 73 70 67 64 64 64 63 59 55 52 51 51 50 49 46 44 45 47 48 49 50 51 51 50 50 50 53 57 62 66 68 72 76 79 81 83 84 85 86 86 87 87
66 66 65 64 63 63 62 63 63 63 63 63 63 63 62 63 64 64 65 65 67 68 69 70 72 74 76 77 79 79 81 81 82 82 82 82 80 79 79 78 77 76 74 71 70 68 67 66 65 63 59 56 53 52 52 52 52 50 49 49 51 52 53 53 54 55 57 59 61 64 66 69 72 75 77 79 81 83 84 84 85 85 86 86 87
68 67 67 67 66 66 64 64 64 64 64 64 63 63 63 64 65 66 66 67 68 68 69 69 71 73 74 76 77 79 80 81 81 81 80 79 78 78 78 77 75 74 74 73 73 73 72 69 66 64 62 59 57 56 55 55 56 55 54 54 55 55 56 57 58 60 62 65 67 70 72 75 76 79 80 81 83 84 84 85 85 86 87 88 88
69 68 69 68 68 68 67 66 65 65 65 65 65 64 64 65 66 68 69 68 69 70 70 70 71 72 73 75 77 77 79 81 81 81 80 78 76 75 75 76 77 77 77 77 76 75 73 71 68 67 65 64 62 61 60 60 60 60 59 58 58 58 59 60 62 63 66 69 71 74 76 79 80 81 83 83 84 85 86 87 88 89 90 90 90
72 70 69 68 68 68 68 68 67 67 67 67 67 66 65 65 67 69 70 70 70 71 72 72 72 72 73 74 76 77 79 81 82 81 80 79 77 75 76 79 80 81 81 80 79 76 73 71 70 69 69 68 67 66 65 64 65 64 63 62 61 61 62 64 65 67 69 72 74 77 79 81 83 85 86 87 88 88 89 90 91 92 92 92 91
78 75 71 68 67 67 68 69 69 68 68 68 69 69 68 67 68 69 70 71 70 70 71 72 73 73 74 74 76 78 80 81 82 82 82 81 79 79 80 83 85 84 83 82 80 77 74 72 73 72 72 72 71 71 71 70 69 69 68 67 66 66 67 68 69 70 72 75 77 80 82 84 85 87 88 90 91 91 92 92 92 93 92 92 92
85 81 77 72 68 66 66 68 69 69 68 69 69 70 70 69 69 69 70 70 70 70 70 71 73 74 75 75 76 79 81 82 83 82 83 83 83 83 84 86 86 86 84 81 78 77 77 77 77 77 77 77 77 77 77 76 76 75 74 73 72 72 73 73 75 76 77 79 81 83 84 86 87 89 90 91 92 93 93 93 93 93 93 93 92
91 88 84 79 74 69 67 68 69 69 68 68 68 69 70 70 69 69 69 70 70 69 69 70 72 73 75 76 77 79 81 83 84 84 85 85 85 85 86 86 87 86 85 82 80 79 80 81 81 81 82 83 83 84 83 83 81 80 79 78 78 78 79 80 80 81 83 83 85 86 87 88 90 91 91 92 93 93 93 94 94 93 93 93 93
97 94 89 84 80 75 71 70 70 70 69 67 66 66 67 69 69 69 69 69 70 69 68 68 70 72 74 75 76 78 81 84 86 87 87 88 87 86 86 87 87 86 86 84 83 83 83 84 85 87 89 89 89 89 89 88 86 85 84 83 83 84 84 85 85 86 87 87 88 89 90 91 91 92 93 93 93 93 93 93 93 92 92 92 91
101 98 94 89 86 83 78 75 73 72 71 68 66 66 65 66 67 68 68 68 69 70 69 68 68 69 71 73 75 76 78 82 85 88 90 90 89 88 88 88 87 87 87 86 86 87 88 89 91 94 95 95 95 94 93 92 90 89 88 88 88 88 88 88 88 89 89 90 90 91 91 92 92 93 93 93 93 92 92 92 91 91 90 90 89
104 101 98 94 91 90 87 82 79 76 74 72 69 67 66 64 64 65 67 68 69 70 70 69 68 67 68 71 73 75 76 79 82 86 89 90 89 89 89 89 88 87 87 88 89 91 93 95 97 99 100 99 99 98 97 95 93 92 91 91 90 90 90 90 90 90 91 91 91 92 92 92 92 92 92 92 92 91 91 90 90 90 89 88 88
110 106 102 99 97 96 94 89 85 82 78 75 72 69 67 66 64 63 64 66 68 69 70 70 69 68 67 68 70 72 74 76 79 82 85 86 88 89 90 90 89 88 88 89 92 95 98 99 101 103 103 102 101 100 99 97 95 94 92 92 92 92 92 92 92 92 92 92 92 91 91 91 91 91 91 91 91 91 90 89 89 88 88 87 86
121 113 107 103 101 102 101 97 91 87 84 79 76 73 70 68 67 65 63 64 65 68 70 70 71 70 69 67 67 68 71 73 76 78 81 83 86 89 90 90 90 89 89 91 94 98 101 103 104 105 105 104 103 102 100 98 97 95 94 94 94 94 94 94 93 93 93 92 92 91 91 91 90 90 90 89 89 88 88 87 87 86 85 84 83
Height
10944 10945 10946 10947 10948 10949 10950 10951 10952 10953 10953 10953 10954 10954 10954 10954 10954 10955 10955 10956 10957 10958 10958 10957 10956 10955 10955 10954 10954 10954 10953 10953 10953 10953 10952 10953 10953 10952 10952 10952 10951 10951 10951 10951 10950 10950 10949 10949 10949 10948 10947 10944 10942 10941 10941 10941 10940 10940 10940 10939 10938 10938 10938 10937 10935 10933 10931 10930 10929 10928 10929 10928 10928 10928 10928 10928 10927 10927 10926 10926 10925 10925 10925 10925 10924
10944 10945 10945 10946 10947 10948 10949 10950 10951 10952 10952 10952 10952 10952 10952 10952 10953 10953 10954 10955 10956 10957 10957 10956 10955 10954 10954 10953 10953 10952 10952 10952 10951 10951 10950 10951 10951 10951 10951 10950 10950 10950 10950 10950 10950 10949 10948 10948 10948 10947 10946 10945 10943 10942 10941 10940 10939 10938 10938 10937 10936 10936 10935 10934 10933 10932 10931 10930 10929 10928 10928 10927 10926 10926 10926 10926 10926 10925 10925 10924 10924 10923 10923 10923 10923
10944 10944 10945 10945 10946 10946 10947 10948 10949 10950 10950 10951 10951 10950 10950 10950 10951 10952 10953 10954 10955 10955 10955 10955 10954 10953 10953 10952 10952 10951 10950 10950 10950 10949 10949 10949 10950 10950 10949 10949 10949 10949 10949 10949 10949 10948 10948 10947 10947 10946 10945 10944 10944 10943 10942 10940 10939 10937 10936 10935 10935 10934 10933 10932 10932 10931 10931 10930 10929 10928 10927 10926 10925 10925 10925 10924 10924 10924 10923 10923 10922 10921 10921 10921 10920
10944 10944 10944 10944 10945 10946 10946 10947 10947 10948 10948 10948 10949 10949 10948 10949 10949 10950 10951 10953 10953 10953 10953 10953 10953 10953 10952 10951 10950 10949 10949 10949 10949 10949 10949 10949 10949 10949 10949 10948 10948 10948 10948 10948 10947 10946 10946 10946 10946 10945 10944 10944 10943 10943 10942 10942 10940 10937 10935 10934 10933 10933 10932 10931 10931 10931 10930 10929 10928 10927 10926 10926 10925 10924 10924 10923 10923 10922 10922 10921 10920 10920 10919 10919 10918
10945 10945 10945 10945 10945 10945 10945 10945 10945 10946 10946 10946 10947 10947 10947 10947 10948 10948 10950 10951 10950 10949 10951 10953 10954 10953 10951 10949 10948 10948 10948 10948 10948 10948 10948 10948 10948 10948 10948 10947 10947 10946 10946 10946 10945 10945 10944 10944 10944 10944 10943 10943 10942 10942 10942 10943 10942 10940 10936 10933 10931 10931 10931 10930 10930 10930 10929 10929 10928 10927 10926 10925 10925 10924 10923 10922 10922 10921 10921 10920 10919 10918 10918 10917 10916
10946 10946 10946 10946 10946 10945 10945 10944 10943 10943 10943 10944 10945 10946 10946 10946 10946 10946 10948 10947 10945 10947 10951 10953 10953 10951 10948 10948 10948 10949 10948 10948 10948 10948 10947 10947 10947 10946 10946 10946 10945 10945 10944 10944 10943 10943 10943 10943 10942 10942 10942 10942 10941 10941 10941 10941 10942 10941 10938 10934 10932 10931 10930 10929 10929 10929 10928 10928 10927 10926 10926 10925 10924 10924 10923 10922 10921 10920 10920 10919 10918 10917 10917 10916 10916
10946 10946 10946 10946 10946 10945 10944 10943 10942 10941 10941 10942 10943 10944 10944 10945 10944 10945 10946 10944 10943 10947 10950 10951 10951 10948 10947 10947 10948 10948 10948 10948 10947 10947 10946 10946 10946 10945 10945 10944 10944 10943 10943 10942 10942 10942 10941 10941 10941 10940 10940 10940 10940 10939 10939 10939 10939 10939 10938 10936 10933 10931 10930 10929 10928 10928 10927 10927 10926 10926 10925 10924 10924 10923 10922 10921 10920 10919 10918 10918 10917 10917 10916 10916 10915
10947 10947 10947 10946 10946 10945 10945 10944 10943 10942 10942 10942 10942 10943 10943 10943 10943 10943 10944 10943 10943 10946 10948 10948 10947 10946 10946 10946 10946 10946 10947 10947 10947 10947 10946 10945 10945 10944 10944 10943 10942 10942 10941 10941 10941 10940 10940 10939 10939 10939 10938 10938 10938 10937 10937 10937 10937 10937 10936 10935 10933 10932 10931 10929 10928 10928 10927 10927 10926 10925 10925 10924 10924 10923 10922 10921 10919 10918 10917 10917 10916 10916 10916 10915 10914
10948 10948 10948 10947 10947 10946 10946 10945 10944 10943 10943 10942 10942 10942 10942 10942 10942 10943 10944 10943 10943 10945 10945 10946 10945 10945 10945 10946 10946 10946 10946 10946 10946 10946 10946 10944 10944 10943 10942 10942 10941 10941 10940 10939 10939 10938 10938 10938 10937 10937 10937 10936 10936 10936 10935 10935 10935 10934 10934 10933 10932 10931 10930 10929 10928 10928 10927 10927 10926 10925 10925 10924 10923 10922 10921 10920 10918 10917 10916 10916 10915 10915 10914 10914 10913
10950 10949 10949 10948 10948 10947 10947 10946 10945 10944 10943 10943 10943 10943 10943 10943 10943 10943 10944 10944 10944 10944 10945 10945 10945 10944 10945 10945 10946 10946 10946 10946 10945 10946 10945 10943 10942 10942 10941 10941 10940 10939 10938 10937 10937 10936 10936 10936 10936 10936 10935 10935 10935 10934 10934 10933 10932 10932 10931 10931 10930 10930 10929 10929 10928 10927 10927 10926 10926 10925 10924 10923 10922 10921 10920 10919 10918 10916 10916 10915 10914 10914 10913 10913 10913
10951 10950 10950 10949 10948 10948 10947 10946 10945 10945 10944 10944 10944 10944 10943 10943 10942 10943 10944 10944 10945 10945 10944 10944 10944 10944 10945 10945 10946 10946 10946 10947 10946 10947 10946 10943 10942 10941 10940 10939 10938 10937 10936 10935 10934 10934 10934 10934 10934 10934 10934 10933 10933 10932 10932 10931 10930 10929 10929 10929 10928 10928 10928 10928 10927 10927 10926 10925 10925 10924 10923 10922 10921 10920 10919 10918 10917 10916 10915 10915 10914 10913 10913 10912 10912
10951 10950 10949 10949 10948 10948 10947 10947 10946 10946 10945 10946 10945 10944 10944 10942 10942 10943 10944 10944 10945 10945 10943 10943 10944 10944 10944 10945 10945 10946 10946 10946 10947 10948 10947 10944 10942 10941 10940 10938 10937 10936 10935 10933 10932 10932 10932 10931 10931 10932 10932 10931 10930 10930 10929 10929 10928 10928 10927 10927 10927 10927 10927 10926 10926 10926 10925 10925 10924 10924 10923 10922 10921 10920 10919 10918 10917 10916 10915 10914 10913 10913 10912 10912 10911
10951 10950 10950 10949 10949 10948 10947 10947 10946 10946 10946 10946 10946 10945 10944 10941 10940 10943 10944 10944 10945 10945 10943 10943 10944 10944 10944 10944 10944 10944 10944 10945 10947 10948 10946 10943 10941 10939 10938 10937 10936 10934 10933 10932 10931 10931 10930 10928 10928 10929 10929 10929 10929 10928 10927 10927 10926 10926 10926 10926 10926 10926 10925 10925 10925 10925 10925 10924 10924 10923 10922 10921 10920 10919 10918 10917 10916 10916 10915 10914 10913 10912 10912 10911 10910
10951 10951 10950 10950 10949 10948 10947 10946 10946 10946 10946 10946 10945 10945 10944 10940 10939 10942 10943 10943 10944 10945 10944 10943 10943 10942 10943 10943 10942 10942 10942 10943 10945 10946 10944 10942 10940 10938 10936 10935 10934 10933 10931 10930 10929 10928 10928 10927 10927 10927 10927 10927 10927 10926 10926 10925 10925 10925 10925 10925 10925 10925 10924 10924 10924 10924 10924 10923 10923 10922 10921 10920 10920 10919 10918 10917 10916 10915 10914 10913 10913 10912 10911 10910 10909
10952 10952 10951 10950 10949 10948 10947 10947 10946 10946 10946 10946 10946 10945 10944 10940 10938 10941 10943 10943 10943 10944 10943 10942 10941 10941 10942 10942 10942 10942 10942 10943 10944 10943 10942 10940 10938 10937 10935 10933 10932 10930 10929 10928 10927 10926 10926 10926 10925 10925 10925 10925 10925 10925 10924 10924 10924 10924 10924 10924 10924 10924 10923 10923 10923 10923 10923 10922 10922 10921 10920 10920 10919 10918 10917 10916 10915 10915 10914 10913 10912 10911 10910 10910 10909
10954 10953 10952 10950 10949 10948 10947 10947 10947 10947 10946 10946 10946 10946 10945 10940 10937 10941 10943 10943 10942 10942 10943 10943 10941 10941 10942 10943 10944 10944 10943 10942 10942 10941 10939 10938 10936 10934 10933 10931 10929 10928 10927 10926 10925 10924 10924 10924 10924 10923 10923 10923 10923 10923 10923 10923 10923 10923 10923 10923 10923 10923 10923 10922 10922 10922 10922 10921 10921 10920 10919 10919 10918 10917 10917 10916 10915 10914 10913 10912 10912 10911 10910 10909 10909
10954 10953 10952 10950 10949 10948 10947 10947 10947 10947 10946 10946 10947 10947 10946 10941 10938 10940 10943 10943 10942 10941 10942 10942 10942 10941 10943 10944 10945 10945 10943 10941 10940 10938 10937 10935 10933 10931 10930 10928 10927 10926 10925 10924 10923 10923 10922 10922 10922 10921 10921 10921 10921 10921 10921 10922 10922 10922 10922 10922 10922 10922 10922 10922 10922 10921 10921 10920 10919 10919 10918 10918 10917 10917 10916 10916 10915 10914 10913 10912 10911 10910 10910 10909 10908
10954 10953 10951 10950 10949 10948 10947 10947 10947 10947 10946 10946 10947 10948 10948 10944 10939 10939 10942 10943 10942 10940 10940 10939 10939 10940 10942 10943 10943 10943 10941 10940 10938 10936 10934 10932 10931 10929 10927 10926 10925 10924 10923 10922 10921 10921 10920 10920 10919 10919 10919 10920 10920 10920 10921 10921 10922 10922 10922 10922 10922 10922 10922 10921 10921 10920 10920 10919 10919 10918 10918 10918 10917 10917 10916 10915 10915 10914 10913 10912 10911 10910 10909 10908 10908
10954 10952 10951 10950 10950 10949 10948 10948 10948 10948 10947 10947 10948 10949 10949 10946 10940 10939 10941 10943 10943 10941 10939 10938 10938 10939 10940 10941 10941 10940 10939 10937 10935 10933 10932 10930 10928 10927 10925 10923 10922 10922 10921 10920 10919 10919 10918 10917 10917 10918 10918 10919 10919 10920 10920 10921 10921 10922 10922 10922 10922 10922 10921 10921 10920 10920 10919 10919 10919 10918 10918 10918 10917 10917 10916 10915 10914 10913 10913 10912 10911 10910 10909 10908 10907
10954 10953 10952 10951 10951 10950 10949 10950 10949 10949 10948 10948 10948 10949 10949 10947 10941 10938 10938 10941 10943 10942 10941 10939 10939 10939 10939 10939 10938 10938 10936 10935 10933 10931 10930 10928 10926 10924 10923 10922 10921 10920 10920 10919 10918 10917 10917 10917 10917 10917 10918 10919 10920 10920 10921 10921 10921 10922 10922 10922 10922 10922 10921 10921 10920 10920 10920 10919 10919 10919 10918 10918 10917 10916 10916 10915 10914 10913 10912 10911 10910 10909 10908 10908 10907
10955 10954 10953 10953 10952 10951 10951 10951 10950 10949 10948 10948 10948 10949 10949 10948 10944 10940 10937 10939 10942 10943 10942 10940 10940 10939 10938 10937 10936 10936 10934 10933 10932 10930 10928 10926 10924 10923 10922 10922 10921 10920 10920 10919 10918 10918 10917 10917 10918 10918 10919 10920 10921 10921 10922 10922 10922 10922 10922 10922 10922 10922 10922 10921 10921 10921 10920 10920 10919 10919 10918 10918 10917 10916 10915 10914 10913 10912 10911 10910 10909 10909 10908 10907 10907
10956 10955 10955 10954 10953 10952 10951 10951 10950 10950 10949 10949 10948 10948 10948 10948 10947 10943 10939 10939 10941 10943 10942 10941 10940 10939 10937 10936 10935 10935 10933 10932 10930 10928 10926 10925 10924 10923 10923 10922 10922 10921 10920 10920 10919 10919 10919 10919 10919 10920 10920 10921 10922 10922 10922 10922 10922 10922 10922 10923 10923 10922 10922 10922 10922 10921 10920 10920 10919 10919 10918 10917 10916 10916 10915 10914 10913 10912 10911 10910 10909 10908 10907 10907 10906
10958 10957 10956 10955 10954 10953 10952 10951 10951 10950 10950 10949 10949 10948 10948 10948 10947 10945 10942 10941 10941 10941 10941 10941 10940 10939 10937 10936 10935 10934 10932 10931 10929 10928 10926 10925 10925 10924 10923 10923 10922 10922 10921 10921 10920 10920 10920 10921 10921 10921 10922 10922 10922 10922 10923 10923 10923 10923 10923 10923 10923 10923 10923 10922 10922 10921 10921 10920 10920 10919 10918 10917 10916 10915 10914 10913 10912 10911 10910 10909 10908 10907 10907 10906 10906
10959 10958 10957 10956 10955 10954 10953 10952 10951 10951 10951 10950 10949 10949 10948 10948 10947 10946 10944 10943 10941 10940 10940 10939 10938 10937 10936 10935 10934 10933 10932 10931 10930 10929 10928 10927 10926 10925 10924 10924 10923 10922 10922 10922 10921 10921 10922 10922 10922 10923 10923 10923 10923 10924 10924 10924 10924 10924 10924 10924 10924 10924 10923 10922 10922 10921 10921 10920 10919 10918 10917 10916 10916 10915 10914 10913 10912 10911 10910 10909 10908 10907 10906 10906 10905
10960 10959 10958 10957 10956 10955 10954 10953 10952 10951 10951 10950 10949 10949 10948 10947 10947 10946 10945 10943 10942 10940 10940 10939 10938 10937 10935 10934 10933 10933 10933 10932 10931 10930 10929 10928 10927 10926 10925 10924 10924 10923 10923 10923 10923 10923 10923 10923 10924 10924 10925 10925 10926 10926 10926 10926 10926 10926 10925 10925 10925 10924 10923 10923 10923 10922 10921 10920 10919 10918 10917 10916 10916 10915 10914 10913 10912 10910 10909 10908 10907 10906 10906 10905 10904
10962 10961 10960 10959 10958 10957 10956 10955 10953 10952 10951 10950 10949 10949 10948 10947 10947 10946 10945 10944 10943 10942 10941 10940 10938 10937 10936 10935 10935 10935 10935 10934 10932 10931 10930 10929 10928 10927 10926 10925 10925 10924 10924 10924 10924 10924 10925 10925 10926 10926 10927 10927 10927 10927 10928 10928 10927 10927 10927 10926 10925 10925 10925 10924 10924 10923 10921 10920 10919 10918 10918 10917 10916 10915 10914 10913 10912 10910 10909 10908 10907 10906 10905 10905 10904
10963 10962 10961 10960 10959 10958 10957 10956 10955 10954 10953 10951 10950 10949 10949 10948 10948 10947 10946 10945 10943 10942 10941 10941 10940 10939 10938 10937 10937 10936 10935 10934 10933 10932 10931 10930 10929 10928 10927 10927 10926 10926 10926 10926 10926 10927 10927 10928 10928 10928 10929 10929 10929 10929 10929 10929 10929 10928 10927 10926 10926 10926 10926 10925 10924 10923 10921 10920 10919 10919 10918 10917 10916 10915 10914 10913 10911 10910 10909 10908 10907 10906 10905 10904 10903
10965 10964 10963 10962 10961 10960 10959 10958 10957 10956 10954 10953 10952 10951 10950 10949 10948 10947 10946 10945 10944 10943 10942 10942 10941 10940 10939 10939 10938 10937 10936 10935 10934 10933 10932 10931 10930 10929 10929 10929 10928 10928 10928 10929 10929 10929 10929 10930 10930 10930 10930 10930 10930 10930 10931 10931 10930 10929 10928 10927 10927 10927 10926 10925 10924 10923 10922 10921 10920 10919 10919 10918 10917 10916 10914 10913 10912 10910 10909 10908 10907 10906 10905 10904 10903
10967 10966 10965 10963 10962 10961 10961 10960 10958 10957 10956 10954 10953 10952 10951 10950 10949 10948 10947 10946 10945 10944 10943 10943 10942 10941 10940 10940 10939 10937 10936 10935 10935 10934 10933 10932 10932 10931 10931 10931 10931 10931 10931 10931 10931 10931 10932 10932 10932 10932 10932 10932 10932 10932 10932 10932 10931 10930 10929 10929 10928 10927 10927 10926 10925 10923 10922 10921 10921 10920 10919 10919 10917 10916 10915 10913 10912 10910 10909 10908 10907 10906 10905 10904 10903
10969 10968 10966 10965 10964 10963 10962 10961 10960 10958 10957 10956 10954 10953 10952 10951 10950 10949 10948 10947 10946 10945 10945 10944 10943 10942 10941 10940 10939 10938 10937 10936 10936 10935 10935 10934 10934 10934 10933 10933 10933 10933 10933 10933 10934 10934 10934 10934 10934 10934 10933 10933 10933 10934 10934 10934 10933 10932 10931 10930 10929 10928 10927 10926 10925 10924 10923 10922 10921 10920 10920 10919 10917 10916 10915 10913 10912 10910 10909 10908 10907 10906 10905 10904 10903
10971 10970 10969 10967 10966 10964 10963 10962 10961 10960 10959 10957 10956 10955 10954 10952 10951 10950 10949 10948 10947 10947 10946 10945 10944 10943 10943 10942 10941 10940 10939 10938 10937 10937 10937 10937 10936 10936 10936 10936 10936 10936 10936 10936 10936 10936 10936 10936 10936 10936 10935 10935 10935 10935 10935 10935 10934 10933 10932 10931 10930 10929 10928 10927 10926 10924 10923 10922 10921 10920 10920 10918 10917 10916 10914 10913 10912 10910 10909 10908 10907 10906 10905 10904 10904
10973 10972 10971 10969 10967 10966 10965 10963 10962 10961 10960 10959 10957 10956 10955 10954 10953 10952 10951 10950 10949 10948 10947 10946 10945 10944 10944 10943 10942 10941 10940 10940 10939 10939 10939 10939 10939 10938 10938 10938 10938 10938 10938 10938 10938 10938 10938 10938 10938 10938 10938 10937 10937 10937 10937 10936 10935 10934 10933 10932 10931 10930 10929 10927 10926 10925 10924 10923 10921 10920 10919 10918 10917 10915 10914 10913 10912 10911 10909 10908 10907 10906 10906 10905 10904
10976 10974 10973 10971 10969 10968 10966 10965 10964 10963 10962 10961 10959 10958 10957 10956 10955 10954 10953 10951 10950 10949 10948 10947 10946 10945 10945 10944 10943 10943 10942 10942 10941 10941 10941 10941 10941 10941 10941 10941 10941 10941 10941 10941 10940 10940 10940 10940 10940 10940 10940 10939 10939 10938 10938 10937 10936 10935 10934 10933 10932 10931 10929 10928 10927 10926 10924 10923 10922 10920 10919 10918 10916 10915 10914 10913 10912 10911 10910 10909 10908 10907 10907 10906 10906
10978 10976 10974 10973 10971 10970 10969 10967 10966 10965 10964 10963 10961 10960 10959 10957 10956 10955 10954 10952 10951 10950 10949 10948 10947 10947 10946 10945 10945 10945 10944 10944 10944 10944 10944 10944 10944 10943 10943 10944 10944 10944 10943 10943 10943 10943 10943 10943 10942 10942 10942 10941 10941 10940 10939 10938 10937 10936 10935 10934 10933 10931 10930 10929 10928 10926 10925 10924 10922 10920 10919 10918 10916 10915 10914 10913 10912 10911 10910 10910 10909 10908 10908 10907 10907
10980 10978 10977 10975 10973 10972 10971 10970 10968 10967 10966 10965 10963 10962 10960 10959 10958 10956 10955 10954 10953 10952 10951 10950 10949 10948 10948 10948 10947 10947 10947 10947 10947 10947 10946 10946 10946 10946 10946 10946 10946 10946 10946 10945 10945 10946 10945 10945 10945 10944 10944 10943 10942 10941 10940 10939 10939 10938 10937 10935 10933 10932 10931 10929 10928 10927 10926 10924 10923 10921 10919 10918 10916 10915 10914 10913 10913 10912 10911 10911 10910 10910 10909 10909 10908
10982 10981 10979 10977 10975 10974 10973 10972 10971 10970 10969 10967 10966 10964 10963 10961 10960 10958 10957 10956 10955 10954 10953 10952 10951 10951 10950 10950 10950 10950 10949 10949 10949 10949 10949 10948 10948 10948 10948 10948 10948 10948 10948 10948 10948 10948 10948 10947 10947 10946 10946 10945 10944 10943 10941 10941 10940 10939 10938 10936 10934 10933 10931 10930 10929 10928 10927 10925 10923 10921 10919 10918 10917 10916 10915 10914 10914 10913 10913 10912 10912 10911 10911 10911 10911
10984 10983 10981 10980 10978 10976 10975 10974 10973 10972 10971 10970 10968 10967 10965 10964 10962 10961 10959 10958 10957 10956 10955 10954 10953 10953 10953 10952 10952 10951 10951 10951 10951 10951 10951 10950 10950 10950 10950 10950 10950 10950 10950 10950 10950 10950 10950 10949 10949 10948 10948 10947 10946 10944 10943 10942 10941 10940 10939 10937 10935 10933 10932 10931 10929 10929 10928 10926 10924 10922 10920 10919 10917 10917 10916 10916 10915 10915 10914 10914 10914 10913 10913 10913 10913
10986 10985 10984 10982 10980 10979 10978 10976 10975 10974 10973 10972 10970 10969 10968 10966 10965 10964 10962 10961 10959 10958 10957 10957 10956 10955 10954 10954 10953 10953 10953 10953 10953 10953 10953 10952 10952 10952 10952 10952 10952 10952 10952 10952 10952 10952 10952 10951 10951 10950 10949 10949 10948 10946 10945 10944 10943 10942 10940 10938 10936 10934 10933 10931 10930 10929 10928 10927 10925 10923 10921 10920 10919 10918 10917 10917 10917 10917 10916 10916 10916 10916 10916 10916 10916
10989 10987 10986 10985 10983 10981 10980 10979 10978 10976 10975 10974 10972 10971 10970 10968 10967 10966 10965 10963 10962 10961 10960 10959 10958 10957 10956 10955 10955 10955 10955 10955 10955 10955 10954 10954 10954 10954 10954 10954 10954 10954 10954 10954 10954 10954 10954 10954 10953 10952 10951 10951 10950 10948 10947 10945 10944 10943 10941 10939 10937 10935 10934 10932 10931 10930 10929 10928 10926 10924 10923 10922 10921 10920 10919 10919 10919 10919 10919 10919 10919 10919 10919 10919 10919
10991 10990 10989 10987 10985 10984 10983 10981 10980 10979 10977 10976 10975 10973 10972 10971 10969 10968 10967 10966 10964 10963 10962 10961 10960 10958 10957 10957 10957 10957 10957 10957 10956 10956 10956 10956 10956 10956 10956 10956 10956 10956 10956 10956 10956 10956 10956 10955 10955 10954 10953 10952 10951 10950 10949 10947 10946 10944 10943 10941 10939 10937 10935 10934 10933 10932 10930 10929 10928 10926 10925 10924 10923 10922 10922 10922 10922 10922 10922 10922 10922 10922 10922 10922 10922
10994 10992 10991 10990 10988 10986 10985 10984 10983 10981 10980 10979 10977 10976 10974 10973 10971 10970 10969 10968 10967 10966 10965 10964 10962 10960 10959 10959 10958 10958 10958 10958 10958 10957 10957 10958 10958 10958 10958 10958 10958 10958 10958 10958 10958 10958 10958 10957 10957 10956 10955 10954 10953 10952 10951 10949 10948 10946 10945 10943 10941 10939 10937 10936 10935 10934 10932 10931 10930 10929 10928 10927 10926 10925 10925 10925 10925 10926 10925 10925 10925 10925 10925 10925 10925
10996 10995 10993 10992 10991 10989 10988 10987 10985 10984 10983 10981 10980 10979 10977 10976 10974 10973 10972 10971 10970 10969 10968 10966 10964 10963 10962 10961 10960 10960 10960 10959 10959 10959 10959 10959 10960 10960 10960 10960 10961 10961 10960 10960 10960 10960 10960 10960 10960 10958 10957 10956 10955 10954 10953 10952 10950 10948 10947 10945 10943 10941 10940 10939 10938 10936 10935 10934 10933 10932 10931 10930 10929 10929 10928 10929 10929 10929 10929 10929 10929 10929 10929 10929 10928
10997 10997 10996 10994 10993 10992 10991 10990 10988 10987 10986 10984 10983 10982 10981 10979 10978 10976 10975 10974 10973 10972 10970 10968 10967 10966 10965 10964 10963 10962 10961 10961 10961 10961 10961 10962 10962 10962 10962 10963 10963 10963 10963 10963 10963 10963 10963 10963 10962 10961 10960 10959 10958 10957 10956 10955 10953 10951 10949 10948 10947 10945 10944 10942 10941 10939 10938 10937 10936 10935 10934 10934 10933 10932 10932 10932 10932 10933 10933 10933 10933 10933 10933 10932 10932
10999 10998 10997 10996 10995 10994 10993 10992 10991 10990 10989 10987 10986 10985 10984 10983 10981 10980 10978 10977 10976 10975 10973 10970 10969 10968 10968 10967 10965 10965 10964 10964 10964 10964 10964 10964 10964 10964 10965 10965 10965 10965 10965 10966 10966 10965 10965 10965 10964 10963 10963 10962 10961 10960 10959 10958 10957 10955 10953 10952 10951 10949 10948 10946 10945 10943 10942 10941 10940 10939 10938 10938 10937 10937 10936 10936 10936 10936 10937 10937 10937 10937 10936 10936 10936
11000 10999 10999 10998 10997 10996 10996 10994 10993 10992 10991 10990 10989 10988 10987 10986 10985 10983 10981 10980 10979 10977 10975 10973 10972 10971 10970 10969 10968 10968 10967 10967 10967 10966 10967 10967 10967 10967 10967 10967 10968 10968 10968 10968 10968 10968 10968 10967 10967 10966 10966 10965 10964 10964 10963 10962 10961 10959 10958 10956 10955 10954 10953 10951 10949 10948 10947 10946 10945 10944 10943 10943 10942 10942 10942 10942 10941 10941 10941 10941 10941 10941 10941 10941 10940
11001 11000 11000 10999 10999 10998 10997 10996 10995 10994 10993 10992 10992 10991 10989 10988 10987 10986 10985 10983 10981 10980 10978 10976 10975 10974 10973 10972 10972 10971 10970 10970 10969 10969 10969 10969 10969 10970 10970 10970 10970 10971 10970 10971 10971 10970 10970 10970 10969 10969 10969 10969 10968 10967 10967 10966 10965 10964 10963 10961 10960 10959 10958 10957 10955 10954 10953 10952 10951 10950 10949 10948 10948 10948 10947 10947 10947 10947 10947 10946 10946 10946 10946 10946 10945
11002 11001 11001 11000 11000 10999 10998 10998 10997 10996 10995 10994 10994 10993 10991 10990 10989 10988 10987 10986 10984 10982 10981 10980 10978 10977 10976 10975 10975 10974 10973 10972 10972 10972 10972 10972 10972 10973 10973 10973 10973 10973 10973 10973 10973 10973 10973 10973 10972 10972 10973 10973 10972 10972 10971 10971 10970 10969 10968 10967 10966 10965 10964 10963 10961 10960 10959 10958 10957 10956 10955 10955 10954 10954 10953 10953 10953 10953 10952 10952 10952 10951 10951 10951 10951
11003 11002 11002 11001 11000 11000 10999 10999 10999 10998 10997 10996 10996 10995 10994 10993 10992 10991 10990 10988 10987 10985 10984 10983 10982 10981 10979 10978 10978 10977 10976 10975 10975 10975 10975 10975 10975 10975 10975 10976 10975 10975 10975 10975 10975 10976 10976 10976 10976 10976 10976 10976 10976 10976 10976 10976 10975 10974 10973 10972 10971 10970 10970 10969 10967 10966 10965 10964 10963 10962 10962 10961 10961 10960 10960 10959 10959 10958 10958 10957 10957 10956 10956 10956 10956
11004 11003 11002 11002 11001 11001 11001 11000 11000 11000 10999 10998 10998 10997 10996 10995 10994 10993 10992 10990 10989 10988 10987 10986 10986 10984 10983 10982 10981 10980 10979 10978 10978 10978 10978 10978 10977 10978 10978 10978 10978 10978 10978 10978 10978 10979 10979 10979 10979 10979 10980 10980 10980 10980 10980 10980 10979 10979 10978 10977 10977 10976 10975 10974 10973 10973 10972 10971 10970 10969 10968 10968 10967 10966 10965 10964 10964 10963 10963 10962 10961 10961 10960 10960 10960
11004 11004 11003 11003 11003 11003 11002 11002 11001 11001 11001 11000 11000 10999 10998 10997 10996 10995 10994 10993 10992 10991 10990 10989 10989 10988 10986 10986 10985 10984 10982 10982 10982 10981 10981 10981 10981 10980 10980 10981 10981 10981 10981 10981 10981 10981 10982 10982 10982 10983 10983 10983 10984 10984 10984 10984 10984 10983 10982 10982 10981 10981 10980 10979 10979 10978 10978 10977 10976 10975 10974 10974 10973 10972 10971 10970 10969 10968 10968 10967 10966 10965 10965 10965 10964
11004 11004 11004 11004 11004 11004 11004 11003 11003 11002 11002 11002 11001 11001 11000 10999 10999 10998 10996 10996 10995 10994 10993 10992 10991 10990 10990 10989 10988 10987 10986 10986 10985 10985 10984 10984 10984 10984 10984 10984 10984 10984 10984 10984 10984 10984 10985 10985 10985 10986 10986 10987 10987 10987 10988 10987 10987 10987 10987 10986 10986 10985 10985 10984 10984 10983 10983 10982 10981 10980 10980 10979 10978 10977 10976 10975 10974 10974 10973 10972 10971 10971 10970 10970 10969